EXPRESS-AM6 (40277 NORAD) Tracking and Keplerian Element Data

This shows tracking and keplerian element data for the satellite.

Feedback or suggestion? Click here.




ElementValue
Catalog40277
NameEXPRESS-AM6
Epoch Orbit1883
Epoch Day91.82485361
Epoch Year2020
RAAN301.9393
Inclination0.044
Eccentricity1.74E-05
Argument of Perigee29.5665
Mean Anonmoly208.0892
Mean Motion1.0027366
Decay Rate9.4E-07
L11 40277U 14064A 20091.82485361 .00000094 00000-0 00000-0 0 9997
L22 40277 0.0440 301.9393 0000174 29.5665 208.0892 1.00273660 18837

Live tracking and technical data element details for EXPRESS-AM6 (NORAD 40277). EXPRESS-AM6 can be tracked NOW for your location showing map with azimuth and elevation plus other details from your city location.

Track the satellite on the map from your city or location and see movement details for azimuth, elevation, latitude, longitude, range, height, and movement on the map or in text.







IsCatalogInMostPopularTable: catalog: 40277, numindb: 342
Update: records affected: 1



GetName: 40277 EXPRESS-AM6

Hit Count: updated at: Fri, 03 Apr 2020 08:25:51 GMT